Voltar ao catálogo

CZ-2D DEB

AtivoPO
NORAD 44611·DEBRIS·🇨🇳 China

Lançado Oct 9, 2017 de Jiuquan Satellite Launch Center

Loading…

Próximas Passagens (próximas 24 horas)

TLE

AtualizadoSource: Space-Track

Época: Sep 14, 2026, 05:59 UTC

1 44611U 17060D   26257.24954483  .00003582  00000-0  31966-3 0  9997
2 44611  98.2389  58.6909 0027361 180.5077 179.6120 14.96384862480460

Acompanhe CZ-2D DEB em tempo real com AllMySat

Download on the App Store